[[{"header":{"parameterUnit":"m.s-1","parameterCategory":1,"la1":30.2991,"la2":30.254,"lo1":-89.0895,"lo2":-89.0444,"dy":0.0017,"dx":0.0017,"nx":28,"ny":28,"refTime":"2024-07-23T21:00:00:Z","depth":0,"parameterNumber":2,"parameterNumberName":"U-component_of_WINDS"},"data":[0,0,0,0,0,0,0,0,0,0,0,0,0,0,0,0,0,0,0,0,0,0,0,0,0,0,0,0,0,0,0,0,0,0,0,0,0,0,0,0,0,0,0,0,0,0,0,0,0,0,0,0,0,0,0,0,0,0,2.0832,2.0834,0,2.105,2.1052,2.1055,2.1091,2.1089,2.1087,2.1086,2.1315,2.1322,2.133,0,0,0,0,0,0,0,0,0,0,0,0,0,2.0457,2.0464,2.0832,2.0835,2.0837,2.1049,2.1052,2.1055,2.1092,2.1089,2.1087,2.1085,2.1312,2.1321,2.1331,0,0,0,0,0,0,0,0,0,0,0,0,0,2.0642,2.0466,2.0831,2.0881,2.0887,2.1049,2.1052,2.1056,2.1092,2.1089,2.1086,2.1084,2.1309,2.132,2.1332,2.1461,0,0,2.1368,2.1373,0,0,0,0,0,0,0,0,2.0631,2.0656,2.0871,2.0878,2.0885,2.104,2.1004,2.1192,2.1093,2.1015,2.1086,2.1082,2.1226,2.1244,2.1292,2.1472,2.1481,2.1369,2.1376,2.1381,2.1385,0,0,0,0,0,0,0,2.0619,2.0647,2.0918,2.0874,2.0883,2.0895,2.0918,2.104,2.1134,2.1021,2.1024,2.1049,2.123,2.128,2.1297,2.1485,2.1369,2.1379,2.1386,2.1391,2.1789,2.1792,0,0,0,0,0,0,2.0596,2.0636,2.0911,2.0925,2.0749,2.0904,2.093,2.0993,2.1132,2.1151,2.1051,2.105,2.1261,2.1283,2.1305,2.147,2.1381,2.1392,2.1399,2.1785,2.1789,2.1793,0,0,0,0,0,0,2.0588,2.062,2.0902,2.0781,2.0818,2.0914,2.0985,2.0999,2.105,2.1155,2.1173,2.1085,2.126,2.1289,2.1423,2.1478,2.1397,2.1408,2.1781,2.1786,2.1791,2.1796,0,0,0,0,0,0,2.0577,2.0617,2.0664,2.0782,2.0824,2.1013,2.0988,2.1006,2.1069,2.107,2.1192,2.1209,2.126,2.1405,2.1435,2.1493,2.1417,2.1777,2.1783,2.179,2.1791,2.18,2.1808,0,0,0,0,0,2.0563,2.0657,2.0666,2.0699,2.0885,2.1016,2.1041,2.1096,2.1073,2.1124,2.1193,2.1205,2.1467,2.1419,2.1452,2.1514,2.1773,2.1781,2.1789,2.1787,2.1799,2.1808,0,0,0,0,0,0,2.0543,2.0673,2.0685,2.0818,2.0906,2.1022,2.1087,2.1105,2.1202,2.1199,2.1265,2.1292,2.1424,2.1483,2.1426,2.165,2.1619,2.1634,2.1606,2.1618,2.1626,2.161,2.1427,0,0,0,0,0,2.0554,2.0648,2.0757,2.0865,2.0908,2.099,2.1049,2.1084,2.1178,2.1216,2.1294,2.1387,2.1491,2.1557,2.1658,2.18,2.183,2.186,2.1869,2.1875,2.1888,2.1973,2.1989,2.1819,2.1819,2.1819,0,0,2.0578,2.0661,2.0716,2.0863,2.0935,2.1033,2.1021,2.1124,2.1199,2.1232,2.1364,2.1425,2.1534,2.1673,2.1739,2.1727,2.1942,2.1885,2.189,2.1899,2.1983,2.1998,2.2013,2.1824,2.1823,2.1823,0,0,2.0673,2.0743,2.0842,2.0915,2.1025,2.1079,2.1103,2.1218,2.126,2.1393,2.1421,2.1513,2.1689,2.1767,2.1829,2.196,2.1977,2.1991,2.2036,2.2118,2.2132,2.2144,2.2194,2.2211,2.2003,2.2003,2.2003,0,2.0689,2.0836,2.0892,2.0996,2.1062,2.1096,2.12,2.1269,2.1406,2.1453,2.1436,2.1661,2.1737,2.1898,2.193,2.1978,2.2011,2.1977,2.2125,2.2138,2.215,2.2199,2.2217,2.2004,2.2004,2.2004,2.2004,0,2.0853,2.0955,2.1023,2.1155,2.1229,2.1332,2.1407,2.1476,2.1506,2.1564,2.1702,2.1794,2.1917,2.1958,2.1988,2.2125,2.2115,2.2111,2.2081,2.2166,2.2214,2.2232,2.2006,2.2005,2.2005,2.2005,0,0,2.0938,2.1102,2.1127,2.1189,2.1314,2.1396,2.1503,2.1622,2.1682,2.1777,2.1872,2.2022,2.2021,2.2092,2.2132,2.2204,2.2307,2.2193,2.2196,2.2213,2.2469,2.2472,2.2493,2.2319,2.2323,2.2326,2.2461,0,2.105,2.1239,2.1295,2.1457,2.1555,2.1591,2.1686,2.1775,2.1834,2.1928,2.1994,2.2101,2.2089,2.2133,2.2206,2.2278,2.2359,2.2269,2.2412,2.2416,2.2384,2.2517,2.2519,2.2643,2.248,2.2483,2.2485,0,2.1204,2.1302,2.1473,2.159,2.1634,2.1717,2.1833,2.1922,2.2026,2.2064,2.2146,2.2181,2.23,2.2264,2.2431,2.2368,2.2431,2.2476,2.2482,2.2499,2.2456,2.2539,2.2683,2.2702,2.2514,2.2512,2.2509,0,2.1253,2.1428,2.1554,2.1606,2.1745,2.1804,2.1865,2.1967,2.2036,2.2139,2.2186,2.2302,2.2366,2.2457,2.2524,2.2491,2.2687,2.2656,2.2726,2.2724,2.2766,2.2762,2.2923,2.2802,2.2802,2.2801,2.2801,0,2.1372,2.1476,2.1578,2.1656,2.1776,2.1841,2.1959,2.2022,2.2113,2.2207,2.2247,2.2335,2.2417,2.2518,2.2572,2.2705,2.2733,2.277,2.2784,2.2768,2.2763,2.281,2.2804,2.2807,2.2805,2.2804,2.2804,0,2.1447,2.1519,2.1659,2.1781,2.1814,2.1897,2.2003,2.2083,2.2144,2.2263,2.2295,2.2392,2.2513,2.2589,2.2743,2.2779,2.2926,2.2936,2.289,2.2897,2.2964,2.2958,2.3162,2.3194,2.3049,2.305,2.3051,0,2.1518,2.16,2.1731,2.1796,2.1857,2.1961,2.2033,2.2103,2.2177,2.2305,2.237,2.2494,2.2596,2.2789,2.2875,2.2995,2.3009,2.3073,2.3027,2.3011,2.3014,2.3009,2.302,2.308,2.3081,2.3082,2.3083,0,2.164,2.1673,2.1773,2.1889,2.1973,2.2067,2.2162,2.2214,2.23,2.2382,2.2506,2.2585,2.2744,2.2868,2.2996,2.3063,2.309,2.3097,2.312,2.3106,2.3077,2.3097,2.2913,2.3092,2.3091,2.3091,2.309,2.309,2.1718,2.1793,2.1898,2.2011,2.209,2.2178,2.226,2.2332,2.2436,2.2569,2.2605,2.2736,2.2845,2.3019,2.309,2.3196,2.3188,2.322,2.3229,2.3237,2.324,2.3059,2.3219,2.3219,2.3219,2.3219,2.3219,0,2.1844,2.1914,2.2017,2.2148,2.2238,2.2254,2.2361,2.2436,2.255,2.2648,2.2748,2.2894,2.3016,2.3113,2.3239,2.3306,2.3322,2.3337,2.3334,2.3351,2.3238,2.3206,2.3323,2.3323,2.3323,2.3323,2.3323,2.3323,2.192,2.205,2.2096,2.2268,2.2339,2.2466,2.2526,2.261,2.2689,2.2849,2.295,2.3012,2.3112,2.3247,2.3361,2.3388,2.3434,2.3447,2.3476,2.3369,2.3358,2.3347,2.3318,2.3456,2.3456,2.3581,2.3582,2.3583]},{"header":{"parameterUnit":"m.s-1","parameterCategory":1,"la1":30.2991,"la2":30.254,"lo1":-89.0895,"lo2":-89.0444,"dy":0.0017,"dx":0.0017,"nx":28,"ny":28,"refTime":"2024-07-23T21:00:00:Z","depth":0,"parameterNumber":3,"parameterNumberName":"V-component_of_WINDS"},"data":[0,0,0,0,0,0,0,0,0,0,0,0,0,0,0,0,0,0,0,0,0,0,0,0,0,0,0,0,0,0,0,0,0,0,0,0,0,0,0,0,0,0,0,0,0,0,0,0,0,0,0,0,0,0,0,0,0,0,-1.4581,-1.458,0,-1.4488,-1.4487,-1.4486,-1.4448,-1.4448,-1.4448,-1.4449,-1.4344,-1.4341,-1.4338,0,0,0,0,0,0,0,0,0,0,0,0,0,-1.4713,-1.4711,-1.4581,-1.458,-1.4578,-1.4488,-1.4487,-1.4485,-1.4448,-1.4448,-1.4448,-1.4449,-1.4345,-1.4341,-1.4337,0,0,0,0,0,0,0,0,0,0,0,0,0,-1.4641,-1.471,-1.4581,-1.4549,-1.4545,-1.4488,-1.4487,-1.4485,-1.4448,-1.4448,-1.4448,-1.4449,-1.4346,-1.4341,-1.4337,-1.4302,0,0,-1.4323,-1.4321,0,0,0,0,0,0,0,0,-1.4646,-1.4637,-1.4555,-1.4551,-1.4547,-1.448,-1.4495,-1.4423,-1.4448,-1.4484,-1.4449,-1.4449,-1.4388,-1.438,-1.4361,-1.4297,-1.4292,-1.4323,-1.432,-1.4318,-1.4317,0,0,0,0,0,0,0,-1.4651,-1.464,-1.4544,-1.4554,-1.4549,-1.4535,-1.4526,-1.4481,-1.4435,-1.4481,-1.4478,-1.4468,-1.4386,-1.4366,-1.4359,-1.4291,-1.4323,-1.4319,-1.4316,-1.4314,-1.4187,-1.4186,0,0,0,0,0,0,-1.4662,-1.4645,-1.4547,-1.4541,-1.4598,-1.4533,-1.4522,-1.4501,-1.4435,-1.4426,-1.4468,-1.4467,-1.4374,-1.4364,-1.4355,-1.4306,-1.4318,-1.4314,-1.4311,-1.4187,-1.4187,-1.4186,0,0,0,0,0,0,-1.4665,-1.4654,-1.455,-1.4592,-1.4578,-1.453,-1.4507,-1.4499,-1.4479,-1.4426,-1.4416,-1.4457,-1.4373,-1.4361,-1.4315,-1.4302,-1.4312,-1.4308,-1.4188,-1.4187,-1.4186,-1.4211,0,0,0,0,0,0,-1.4669,-1.4655,-1.4645,-1.4592,-1.4576,-1.4516,-1.4506,-1.4497,-1.4473,-1.447,-1.4413,-1.4404,-1.4373,-1.4322,-1.431,-1.4296,-1.4304,-1.4189,-1.4188,-1.4187,-1.4211,-1.4211,-1.4211,0,0,0,0,0,-1.4674,-1.4654,-1.4645,-1.4633,-1.4562,-1.4515,-1.4505,-1.4473,-1.4472,-1.4459,-1.4423,-1.4405,-1.4306,-1.4317,-1.4304,-1.4289,-1.419,-1.4188,-1.4187,-1.4211,-1.4211,-1.4211,0,0,0,0,0,0,-1.4704,-1.4647,-1.4635,-1.4599,-1.4562,-1.4509,-1.4492,-1.4475,-1.4436,-1.4435,-1.4393,-1.438,-1.4336,-1.4307,-1.4322,-1.4248,-1.4246,-1.4242,-1.4269,-1.4269,-1.4269,-1.4276,-1.43,0,0,0,0,0,-1.4707,-1.4678,-1.4628,-1.46,-1.4582,-1.454,-1.4519,-1.4497,-1.4456,-1.444,-1.4401,-1.4359,-1.4318,-1.4292,-1.4251,-1.4207,-1.4191,-1.4189,-1.4189,-1.4189,-1.4186,-1.4155,-1.4153,-1.4181,-1.4181,-1.4181,0,0,-1.4712,-1.4677,-1.466,-1.4605,-1.4574,-1.454,-1.4528,-1.4493,-1.4466,-1.4433,-1.4388,-1.4357,-1.4307,-1.4261,-1.4238,-1.4236,-1.4174,-1.4187,-1.4188,-1.4184,-1.4153,-1.4151,-1.4148,-1.418,-1.418,-1.418,0,0,-1.4703,-1.4675,-1.4648,-1.4617,-1.4571,-1.4543,-1.4536,-1.4484,-1.4464,-1.4418,-1.4391,-1.4356,-1.4287,-1.4252,-1.4225,-1.4198,-1.4178,-1.4185,-1.4185,-1.4156,-1.4153,-1.4151,-1.4138,-1.4135,-1.4182,-1.4182,-1.4182,0,-1.4714,-1.4666,-1.4635,-1.4601,-1.4575,-1.4546,-1.4515,-1.4486,-1.4428,-1.4408,-1.4407,-1.4317,-1.4282,-1.4224,-1.4218,-1.4198,-1.4185,-1.4192,-1.4157,-1.4154,-1.4152,-1.4139,-1.4134,-1.4183,-1.4183,-1.4183,-1.4183,0,-1.4679,-1.4646,-1.4628,-1.4576,-1.4548,-1.4516,-1.4475,-1.445,-1.4429,-1.4399,-1.4349,-1.4305,-1.4254,-1.4238,-1.4217,-1.4176,-1.4175,-1.4166,-1.4162,-1.4151,-1.4137,-1.4133,-1.4185,-1.4184,-1.4184,-1.4184,0,0,-1.4689,-1.4618,-1.4612,-1.4586,-1.4532,-1.4503,-1.4467,-1.4419,-1.4396,-1.4356,-1.4321,-1.4262,-1.4252,-1.4221,-1.4195,-1.4169,-1.4146,-1.4162,-1.416,-1.4158,-1.4093,-1.41,-1.4095,-1.4133,-1.4132,-1.4131,-1.4096,0,-1.4671,-1.461,-1.4579,-1.4529,-1.4495,-1.4465,-1.4432,-1.4393,-1.4363,-1.4326,-1.4291,-1.4248,-1.424,-1.422,-1.4194,-1.4155,-1.4132,-1.4157,-1.4096,-1.4094,-1.4109,-1.4089,-1.4097,-1.4066,-1.4091,-1.4091,-1.409,0,-1.4644,-1.4606,-1.4554,-1.45,-1.4484,-1.4457,-1.4408,-1.4374,-1.4326,-1.4306,-1.427,-1.4244,-1.4199,-1.4199,-1.4134,-1.4151,-1.4124,-1.41,-1.4098,-1.409,-1.4091,-1.4078,-1.4056,-1.4051,-1.4082,-1.4083,-1.4083,0,-1.4653,-1.4588,-1.4548,-1.4527,-1.4464,-1.4444,-1.4416,-1.4369,-1.4341,-1.4296,-1.4277,-1.4226,-1.4198,-1.4158,-1.4116,-1.4121,-1.4053,-1.4051,-1.4031,-1.4032,-1.4018,-1.4019,-1.3989,-1.4003,-1.4003,-1.4003,-1.4004,0,-1.4636,-1.4605,-1.4551,-1.4526,-1.4487,-1.4449,-1.4411,-1.438,-1.4337,-1.4302,-1.4271,-1.4237,-1.4186,-1.4144,-1.4111,-1.406,-1.4048,-1.4026,-1.4017,-1.4028,-1.403,-1.4009,-1.4009,-1.4002,-1.4002,-1.4003,-1.4003,0,-1.4641,-1.4604,-1.4557,-1.4501,-1.4486,-1.446,-1.4409,-1.4381,-1.4348,-1.4303,-1.429,-1.4238,-1.4186,-1.4142,-1.4073,-1.405,-1.3996,-1.3987,-1.4014,-1.4009,-1.399,-1.3992,-1.3944,-1.3934,-1.3957,-1.3957,-1.3957,0,-1.4632,-1.4607,-1.4548,-1.4524,-1.4497,-1.4458,-1.4429,-1.4389,-1.4359,-1.43,-1.4277,-1.4224,-1.418,-1.4098,-1.4051,-1.3996,-1.3984,-1.3971,-1.3975,-1.3985,-1.398,-1.3981,-1.3976,-1.397,-1.397,-1.397,-1.397,0,-1.462,-1.4602,-1.4564,-1.4518,-1.4484,-1.4445,-1.4405,-1.4385,-1.4336,-1.4303,-1.4252,-1.4217,-1.4147,-1.4093,-1.4033,-1.3998,-1.3974,-1.3969,-1.3961,-1.3971,-1.3987,-1.3975,-1.4011,-1.397,-1.397,-1.397,-1.397,-1.397,-1.4616,-1.4591,-1.4545,-1.4501,-1.4467,-1.4429,-1.4399,-1.4362,-1.432,-1.4262,-1.4239,-1.4186,-1.4132,-1.405,-1.4015,-1.3968,-1.3964,-1.3954,-1.395,-1.3948,-1.3948,-1.3996,-1.3957,-1.3957,-1.3957,-1.3957,-1.3957,0,-1.46,-1.4568,-1.4529,-1.4474,-1.4438,-1.4422,-1.4375,-1.4345,-1.4299,-1.4253,-1.421,-1.4148,-1.4094,-1.4042,-1.3983,-1.3956,-1.3943,-1.3942,-1.3942,-1.3934,-1.3957,-1.3968,-1.3953,-1.3953,-1.3953,-1.3953,-1.3953,-1.3953,-1.4587,-1.4543,-1.4519,-1.4455,-1.4422,-1.4373,-1.4346,-1.4309,-1.4272,-1.4205,-1.4162,-1.4129,-1.4078,-1.4015,-1.3963,-1.3948,-1.3926,-1.3928,-1.391,-1.3932,-1.3933,-1.3934,-1.3944,-1.3924,-1.3924,-1.389,-1.389,-1.389]}]]